| time (UTC) | temp F | wind direction | speed MPH | gust MPH | rain 1hr in | rain 24hr in | rain mn in | humidity % | barometer mb |
| 20260506044010 | 32 | 358 | 0.0 | 3.0 | 0.00 | 0.50 | 0.49 | 95 | 1016.6 |
| 20260506043508 | 32 | 358 | 1.0 | 2.0 | 0.00 | 0.50 | 0.49 | 95 | 1016.7 |
| 20260506043026 | 32 | 358 | 0.0 | 2.0 | 0.00 | 0.50 | 0.49 | 95 | 1016.7 |
| 20260506042512 | 32 | 359 | 1.0 | 2.0 | 0.00 | 0.50 | 0.49 | 95 | 1016.5 |
| 20260506042012 | 32 | 359 | 0.0 | 2.0 | 0.00 | 0.50 | 0.49 | 95 | 1016.4 |
| 20260506041511 | 32 | 359 | 0.0 | 2.0 | 0.00 | 0.50 | 0.49 | 95 | 1016.4 |
| 20260506041011 | 32 | 359 | 0.0 | 2.0 | 0.00 | 0.50 | 0.49 | 95 | 1016.4 |
| 20260506040512 | 32 | 359 | 0.0 | 3.0 | 0.00 | 0.50 | 0.49 | 95 | 1016.5 |
| 20260506040010 | 32 | 358 | 0.0 | 3.0 | 0.00 | 0.50 | 0.49 | 95 | 1016.5 |
| 20260506035511 | 32 | 358 | 1.0 | 2.0 | 0.00 | 0.61 | 0.49 | 95 | 1016.5 |
| 20260506035016 | 32 | 358 | 1.0 | 4.0 | 0.00 | 0.61 | 0.49 | 95 | 1016.5 |
| 20260506034514 | 32 | 358 | 1.0 | 5.0 | 0.00 | 0.61 | 0.49 | 95 | 1016.5 |
| 20260506034014 | 32 | 359 | 2.0 | 5.0 | 0.00 | 0.61 | 0.49 | 95 | 1016.5 |
| 20260506033513 | 32 | 358 | 2.0 | 4.0 | 0.00 | 0.61 | 0.49 | 95 | 1016.4 |
| 20260506033016 | 32 | 354 | 2.0 | 4.0 | 0.00 | 0.61 | 0.49 | 95 | 1016.2 |
| 20260506032511 | 32 | 354 | 2.0 | 4.0 | 0.00 | 0.61 | 0.49 | 95 | 1016.2 |
| 20260506032012 | 32 | 354 | 1.0 | 4.0 | 0.00 | 0.61 | 0.49 | 95 | 1016.2 |
| 20260506031520 | 32 | 353 | 1.0 | 3.0 | 0.00 | 0.61 | 0.49 | 95 | 1016.1 |
| 20260506031020 | 32 | 351 | 1.0 | 3.0 | 0.00 | 0.61 | 0.49 | 95 | 1016.1 |
| 20260506030514 | 32 | 351 | 0.0 | 3.0 | 0.00 | 0.61 | 0.49 | 95 | 1016.0 |
| 20260506030018 | 32 | 349 | 1.0 | 3.0 | 0.00 | 0.61 | 0.49 | 95 | 1015.8 |
| 20260506025613 | 32 | 349 | 1.0 | 3.0 | 0.00 | 0.61 | 0.49 | 95 | 1015.7 |
| 20260506025013 | 32 | 345 | 1.0 | 3.0 | 0.00 | 0.61 | 0.49 | 95 | 1015.6 |
| 20260506024531 | 32 | 343 | 1.0 | 3.0 | 0.00 | 0.61 | 0.49 | 95 | 1015.5 |
| 20260506024014 | 32 | 347 | 1.0 | 3.0 | 0.00 | 0.61 | 0.49 | 95 | 1015.4 |
| 20260506023511 | 32 | 345 | 1.0 | 4.0 | 0.00 | 0.61 | 0.49 | 95 | 1015.2 |
| 20260506023016 | 32 | 347 | 1.0 | 4.0 | 0.01 | 0.61 | 0.49 | 95 | 1015.2 |
| 20260506022518 | 32 | 349 | 1.0 | 4.0 | 0.01 | 0.61 | 0.49 | 95 | 1015.1 |
| 20260506022016 | 32 | 352 | 1.0 | 3.0 | 0.01 | 0.61 | 0.49 | 94 | 1015.0 |
| 20260506021516 | 32 | 351 | 1.0 | 4.0 | 0.01 | 0.61 | 0.49 | 94 | 1014.9 |
| 20260506021019 | 32 | 349 | 1.0 | 4.0 | 0.01 | 0.61 | 0.49 | 94 | 1014.8 |
| 20260506020514 | 32 | 343 | 1.0 | 4.0 | 0.01 | 0.61 | 0.49 | 94 | 1014.9 |
| 20260506020015 | 32 | 340 | 2.0 | 4.0 | 0.01 | 0.61 | 0.49 | 94 | 1014.8 |
| 20260506015515 | 32 | 336 | 2.0 | 4.0 | 0.02 | 0.61 | 0.49 | 95 | 1014.7 |
| 20260506015016 | 32 | 340 | 2.0 | 4.0 | 0.02 | 0.61 | 0.49 | 94 | 1014.6 |
| 20260506014520 | 32 | 338 | 1.0 | 5.0 | 0.02 | 0.61 | 0.49 | 94 | 1014.5 |
| 20260506014019 | 32 | 336 | 1.0 | 5.0 | 0.03 | 0.61 | 0.49 | 94 | 1014.6 |
| 20260506013516 | 33 | 343 | 2.0 | 4.0 | 0.03 | 0.61 | 0.49 | 94 | 1014.7 |
| 20260506013016 | 33 | 359 | 2.0 | 5.0 | 0.03 | 0.60 | 0.48 | 94 | 1014.5 |
| 20260506012516 | 33 | 359 | 2.0 | 5.0 | 0.03 | 0.60 | 0.48 | 94 | 1014.4 |
| 20260506012018 | 33 | 347 | 1.0 | 5.0 | 0.03 | 0.60 | 0.48 | 94 | 1014.2 |
| 20260506011519 | 33 | 341 | 2.0 | 5.0 | 0.03 | 0.60 | 0.48 | 94 | 1014.3 |
| 20260506011020 | 33 | 359 | 2.0 | 4.0 | 0.03 | 0.60 | 0.48 | 94 | 1014.2 |
| 20260506010519 | 33 | 360 | 2.0 | 5.0 | 0.03 | 0.60 | 0.48 | 94 | 1014.1 |
| 20260506010019 | 33 | 359 | 2.0 | 5.0 | 0.03 | 0.60 | 0.48 | 94 | 1014.1 |
| 20260506005521 | 33 | 359 | 3.0 | 5.0 | 0.02 | 0.59 | 0.47 | 94 | 1014.2 |
| 20260506005018 | 33 | 359 | 2.0 | 4.0 | 0.02 | 0.59 | 0.47 | 94 | 1014.2 |
| 20260506004517 | 33 | 360 | 2.0 | 6.0 | 0.02 | 0.59 | 0.47 | 94 | 1014.2 |
| 20260506004017 | 33 | 359 | 2.0 | 6.0 | 0.01 | 0.57 | 0.46 | 94 | 1014.0 |
| 20260506003517 | 33 | 359 | 2.0 | 6.0 | 0.01 | 0.57 | 0.46 | 94 | 1014.1 |
| 20260506003021 | 33 | 360 | 2.0 | 6.0 | 0.00 | 0.56 | 0.45 | 94 | 1014.2 |
| 20260506002520 | 33 | 360 | 2.0 | 5.0 | 0.00 | 0.56 | 0.45 | 94 | 1014.0 |
| 20260506002020 | 33 | 2 | 1.0 | 4.0 | 0.00 | 0.56 | 0.45 | 94 | 1014.0 |
| 20260506001520 | 33 | 360 | 1.0 | 4.0 | 0.00 | 0.56 | 0.45 | 94 | 1014.0 |
| 20260506001021 | 33 | 360 | 2.0 | 4.0 | 0.00 | 0.56 | 0.45 | 94 | 1013.9 |
| 20260506000522 | 33 | 1 | 1.0 | 3.0 | 0.00 | 0.56 | 0.45 | 94 | 1013.9 |
| 20260506000024 | 33 | 1 | 1.0 | 3.0 | 0.00 | 0.56 | 0.45 | 94 | 1014.0 |
| 20260505235526 | 33 | 1 | 1.0 | 4.0 | 0.01 | 0.56 | 0.45 | 94 | 1014.0 |
| 20260505235023 | 32 | 1 | 2.0 | 4.0 | 0.01 | 0.56 | 0.45 | 94 | 1013.9 |
| 20260505234523 | 32 | 1 | 1.0 | 4.0 | 0.01 | 0.56 | 0.45 | 94 | 1013.6 |
| 20260505234025 | 33 | 2 | 1.0 | 5.0 | 0.02 | 0.56 | 0.45 | 94 | 1013.5 |
| 20260505233522 | 33 | 1 | 1.0 | 5.0 | 0.02 | 0.56 | 0.45 | 94 | 1013.5 |
| 20260505233023 | 33 | 359 | 1.0 | 6.0 | 0.03 | 0.56 | 0.45 | 94 | 1013.6 |
| 20260505232522 | 33 | 360 | 2.0 | 6.0 | 0.03 | 0.56 | 0.45 | 93 | 1013.6 |
| 20260505232029 | 33 | 360 | 2.0 | 5.0 | 0.04 | 0.56 | 0.45 | 93 | 1013.7 |
| 20260505231525 | 33 | 360 | 2.0 | 6.0 | 0.04 | 0.56 | 0.45 | 93 | 1013.7 |
| 20260505231024 | 33 | 359 | 2.0 | 7.0 | 0.04 | 0.56 | 0.45 | 93 | 1013.7 |
| 20260505230522 | 34 | 354 | 3.0 | 10.0 | 0.05 | 0.56 | 0.45 | 93 | 1014.0 |
| 20260505230022 | 34 | 339 | 3.0 | 10.0 | 0.05 | 0.56 | 0.45 | 93 | 1013.9 |
| 20260505225523 | 35 | 1 | 3.0 | 9.0 | 0.04 | 0.56 | 0.44 | 92 | 1013.7 |
| 20260505225020 | 36 | 332 | 4.0 | 8.0 | 0.04 | 0.56 | 0.44 | 93 | 1013.4 |
| 20260505224520 | 36 | 7 | 3.0 | 8.0 | 0.04 | 0.56 | 0.44 | 93 | 1013.2 |
| 20260505224019 | 36 | 5 | 3.0 | 8.0 | 0.03 | 0.55 | 0.43 | 93 | 1013.0 |
| 20260505223524 | 37 | 1 | 2.0 | 8.0 | 0.04 | 0.55 | 0.43 | 93 | 1012.9 |
| 20260505223027 | 37 | 1 | 3.0 | 8.0 | 0.03 | 0.54 | 0.42 | 93 | 1012.8 |
| 20260505222522 | 37 | 360 | 1.0 | 8.0 | 0.03 | 0.54 | 0.42 | 93 | 1013.0 |
| 20260505222022 | 37 | 352 | 3.0 | 7.0 | 0.02 | 0.53 | 0.41 | 93 | 1013.2 |
| 20260505221525 | 37 | 2 | 3.0 | 7.0 | 0.03 | 0.53 | 0.41 | 93 | 1013.0 |
| 20260505221023 | 37 | 3 | 1.0 | 7.0 | 0.03 | 0.53 | 0.41 | 93 | 1012.8 |
| 20260505220521 | 37 | 1 | 3.0 | 7.0 | 0.03 | 0.52 | 0.40 | 93 | 1012.8 |
| 20260505220024 | 37 | 9 | 3.0 | 7.0 | 0.04 | 0.52 | 0.40 | 93 | 1012.8 |
| 20260505215627 | 37 | 12 | 2.0 | 6.0 | 0.04 | 0.52 | 0.40 | 93 | 1012.7 |
| 20260505215024 | 37 | 17 | 3.0 | 7.0 | 0.05 | 0.52 | 0.40 | 93 | 1012.7 |
| 20260505214531 | 37 | 20 | 3.0 | 7.0 | 0.05 | 0.52 | 0.40 | 93 | 1012.7 |
| 20260505214024 | 37 | 8 | 3.0 | 7.0 | 0.06 | 0.52 | 0.40 | 93 | 1012.7 |
| 20260505213523 | 37 | 3 | 3.0 | 7.0 | 0.05 | 0.51 | 0.39 | 93 | 1012.7 |
| 20260505213005 | 37 | 1 | 3.0 | 7.0 | 0.05 | 0.51 | 0.39 | 93 | 1012.9 |
| 20260505212503 | 37 | 4 | 3.0 | 8.0 | 0.06 | 0.51 | 0.39 | 93 | 1012.9 |
| 20260505212003 | 37 | 7 | 3.0 | 8.0 | 0.06 | 0.51 | 0.39 | 92 | 1012.9 |
| 20260505211506 | 37 | 5 | 4.0 | 8.0 | 0.05 | 0.50 | 0.38 | 92 | 1012.8 |
| 20260505211006 | 38 | 1 | 3.0 | 8.0 | 0.06 | 0.50 | 0.38 | 91 | 1012.7 |
| 20260505210508 | 39 | 4 | 3.0 | 8.0 | 0.06 | 0.49 | 0.37 | 92 | 1012.9 |
| 20260505210025 | 39 | 38 | 2.0 | 6.0 | 0.05 | 0.48 | 0.36 | 93 | 1012.8 |
| 20260505205524 | 39 | 41 | 2.0 | 6.0 | 0.05 | 0.48 | 0.36 | 93 | 1012.9 |
| 20260505205025 | 39 | 41 | 2.0 | 6.0 | 0.04 | 0.47 | 0.35 | 93 | 1013.1 |
| 20260505204507 | 39 | 28 | 2.0 | 5.0 | 0.04 | 0.47 | 0.35 | 92 | 1013.0 |
| 20260505204009 | 39 | 26 | 2.0 | 5.0 | 0.03 | 0.46 | 0.34 | 93 | 1013.2 |
| 20260505203508 | 39 | 28 | 1.0 | 7.0 | 0.03 | 0.46 | 0.34 | 93 | 1013.3 |
| 20260505203006 | 39 | 66 | 4.0 | 7.0 | 0.03 | 0.46 | 0.34 | 92 | 1013.1 |
| 20260505202506 | 39 | 32 | 0.0 | 4.0 | 0.02 | 0.45 | 0.33 | 93 | 1013.7 |
| 20260505202006 | 39 | 19 | 1.0 | 5.0 | 0.02 | 0.45 | 0.33 | 92 | 1013.9 |
| 20260505201527 | 38 | 18 | 2.0 | 6.0 | 0.02 | 0.45 | 0.33 | 92 | 1013.9 |
| 20260505201026 | 39 | 15 | 1.0 | 6.0 | 0.01 | 0.44 | 0.32 | 92 | 1013.8 |
| 20260505200526 | 39 | 8 | 2.0 | 5.0 | 0.00 | 0.43 | 0.31 | 93 | 1013.7 |
| 20260505200008 | 39 | 1 | 1.0 | 6.0 | 0.00 | 0.43 | 0.31 | 93 | 1013.6 |
| 20260505195507 | 39 | 1 | 3.0 | 6.0 | 0.00 | 0.43 | 0.31 | 93 | 1013.7 |
| 20260505195007 | 39 | 1 | 3.0 | 6.0 | 0.00 | 0.43 | 0.31 | 93 | 1013.9 |
| 20260505194506 | 39 | 342 | 3.0 | 6.0 | 0.00 | 0.43 | 0.31 | 93 | 1013.9 |
| 20260505194006 | 39 | 1 | 3.0 | 7.0 | 0.00 | 0.43 | 0.31 | 93 | 1013.9 |
| 20260505193508 | 39 | 1 | 2.0 | 7.0 | 0.00 | 0.43 | 0.31 | 93 | 1013.9 |
| 20260505193010 | 40 | 9 | 2.0 | 5.0 | 0.00 | 0.43 | 0.31 | 93 | 1013.6 |
| 20260505192516 | 40 | 6 | 1.0 | 5.0 | 0.01 | 0.43 | 0.31 | 93 | 1013.6 |
| 20260505192009 | 40 | 4 | 3.0 | 5.0 | 0.01 | 0.43 | 0.31 | 94 | 1013.6 |
| 20260505191509 | 40 | 5 | 1.0 | 5.0 | 0.01 | 0.43 | 0.31 | 94 | 1013.5 |
| 20260505191008 | 39 | 5 | 1.0 | 5.0 | 0.01 | 0.43 | 0.31 | 94 | 1013.7 |
| 20260505190508 | 39 | 4 | 0.0 | 6.0 | 0.01 | 0.43 | 0.31 | 94 | 1013.8 |
| 20260505190007 | 39 | 2 | 3.0 | 6.0 | 0.01 | 0.43 | 0.31 | 94 | 1013.8 |
| 20260505185507 | 38 | 1 | 4.0 | 6.0 | 0.01 | 0.43 | 0.31 | 94 | 1013.9 |
| 20260505185007 | 38 | 17 | 1.0 | 5.0 | 0.01 | 0.43 | 0.31 | 94 | 1014.1 |
| 20260505184511 | 38 | 16 | 1.0 | 4.0 | 0.02 | 0.43 | 0.31 | 94 | 1014.3 |
| 20260505184009 | 38 | 15 | 1.0 | 4.0 | 0.02 | 0.43 | 0.31 | 94 | 1014.3 |
| 20260505183510 | 38 | 17 | 1.0 | 4.0 | 0.02 | 0.43 | 0.31 | 94 | 1014.3 |
| 20260505183009 | 38 | 17 | 2.0 | 4.0 | 0.02 | 0.43 | 0.31 | 93 | 1014.4 |
| 20260505182511 | 39 | 18 | 3.0 | 4.0 | 0.01 | 0.42 | 0.30 | 94 | 1014.4 |
| 20260505182008 | 39 | 20 | 2.0 | 4.0 | 0.01 | 0.42 | 0.30 | 94 | 1014.3 |
| 20260505181507 | 38 | 18 | 1.0 | 4.0 | 0.02 | 0.42 | 0.30 | 94 | 1014.3 |
| 20260505181006 | 38 | 18 | 1.0 | 4.0 | 0.02 | 0.42 | 0.30 | 94 | 1014.4 |
| 20260505180506 | 38 | 19 | 2.0 | 4.0 | 0.02 | 0.42 | 0.30 | 94 | 1014.6 |
| 20260505180014 | 38 | 19 | 1.0 | 5.0 | 0.02 | 0.42 | 0.30 | 94 | 1014.6 |
| 20260505175511 | 38 | 16 | 1.0 | 5.0 | 0.02 | 0.42 | 0.30 | 94 | 1014.7 |
| 20260505175012 | 38 | 16 | 1.0 | 7.0 | 0.02 | 0.42 | 0.30 | 94 | 1014.7 |
| 20260505174510 | 38 | 16 | 2.0 | 7.0 | 0.01 | 0.41 | 0.28 | 93 | 1014.9 |
| 20260505174010 | 38 | 40 | 2.0 | 5.0 | 0.02 | 0.41 | 0.28 | 94 | 1015.0 |
| 20260505173517 | 38 | 41 | 1.0 | 5.0 | 0.02 | 0.41 | 0.28 | 94 | 1015.0 |
| 20260505173013 | 38 | 41 | 2.0 | 5.0 | 0.02 | 0.41 | 0.28 | 94 | 1015.0 |
| 20260505172512 | 38 | 30 | 1.0 | 4.0 | 0.02 | 0.41 | 0.28 | 94 | 1015.0 |
| 20260505172013 | 38 | 24 | 1.0 | 4.0 | 0.02 | 0.41 | 0.28 | 94 | 1015.0 |
| 20260505171512 | 38 | 20 | 1.0 | 5.0 | 0.01 | 0.40 | 0.28 | 94 | 1014.9 |
| 20260505171012 | 38 | 18 | 2.0 | 5.0 | 0.01 | 0.40 | 0.28 | 94 | 1015.0 |
| 20260505170511 | 38 | 1 | 1.0 | 3.0 | 0.01 | 0.40 | 0.28 | 94 | 1015.0 |
| 20260505170010 | 38 | 1 | 1.0 | 3.0 | 0.01 | 0.40 | 0.28 | 94 | 1015.0 |
| 20260505165510 | 38 | 1 | 0.0 | 3.0 | 0.02 | 0.40 | 0.28 | 94 | 1015.1 |
| 20260505165010 | 38 | 345 | 0.0 | 3.0 | 0.02 | 0.40 | 0.28 | 94 | 1015.1 |
| 20260505164514 | 38 | 8 | 0.0 | 3.0 | 0.02 | 0.40 | 0.28 | 94 | 1015.1 |
| 20260505164014 | 38 | 8 | 0.0 | 3.0 | 0.01 | 0.39 | 0.27 | 94 | 1015.1 |
| 20260505163515 | 38 | 8 | 0.0 | 3.0 | 0.01 | 0.39 | 0.27 | 94 | 1015.1 |
| 20260505163017 | 38 | 8 | 1.0 | 4.0 | 0.01 | 0.39 | 0.27 | 94 | 1015.2 |
| 20260505162512 | 37 | 8 | 1.0 | 4.0 | 0.01 | 0.39 | 0.27 | 94 | 1015.2 |
| 20260505162013 | 37 | 8 | 1.0 | 4.0 | 0.01 | 0.39 | 0.27 | 94 | 1015.3 |
| 20260505161519 | 37 | 8 | 1.0 | 4.0 | 0.01 | 0.39 | 0.27 | 94 | 1015.2 |
| 20260505161016 | 37 | 8 | 1.0 | 4.0 | 0.01 | 0.39 | 0.27 | 94 | 1015.3 |
| 20260505160517 | 37 | 8 | 2.0 | 4.0 | 0.01 | 0.39 | 0.27 | 94 | 1015.3 |
| 20260505153016 | 37 | 1 | 1.0 | 3.0 | 0.01 | 0.38 | 0.26 | 94 | 1015.5 |
| 20260505152516 | 37 | 1 | 1.0 | 3.0 | 0.02 | 0.38 | 0.26 | 94 | 1015.6 |
| 20260505152017 | 37 | 1 | 1.0 | 3.0 | 0.02 | 0.38 | 0.26 | 94 | 1015.6 |
| 20260505151515 | 36 | 1 | 1.0 | 4.0 | 0.02 | 0.38 | 0.26 | 94 | 1015.5 |
| 20260505151015 | 36 | 1 | 1.0 | 4.0 | 0.02 | 0.38 | 0.26 | 93 | 1015.5 |
| 20260505150525 | 37 | 1 | 1.0 | 4.0 | 0.02 | 0.38 | 0.26 | 94 | 1015.6 |
| 20260505140521 | 36 | 24 | 1.0 | 4.0 | 0.03 | 0.36 | 0.24 | 94 | 1015.6 |
| 20260505125025 | 36 | 6 | 2.0 | 6.0 | 0.03 | 0.32 | 0.20 | 93 | 1014.9 |
| 20260505124532 | 36 | 5 | 2.0 | 8.0 | 0.04 | 0.32 | 0.20 | 93 | 1014.7 |
| 20260505124024 | 36 | 5 | 2.0 | 8.0 | 0.04 | 0.32 | 0.20 | 93 | 1014.6 |
| 20260505123524 | 36 | 17 | 3.0 | 8.0 | 0.03 | 0.31 | 0.19 | 93 | 1014.5 |
| 20260505123029 | 36 | 6 | 2.0 | 8.0 | 0.04 | 0.31 | 0.19 | 93 | 1014.6 |
| 20260505122524 | 36 | 11 | 3.0 | 8.0 | 0.04 | 0.31 | 0.19 | 93 | 1014.7 |
| 20260505122021 | 36 | 1 | 3.0 | 8.0 | 0.04 | 0.30 | 0.18 | 92 | 1014.7 |
| 20260505121534 | 37 | 1 | 3.0 | 8.0 | 0.04 | 0.30 | 0.18 | 92 | 1014.5 |
| 20260505121025 | 37 | 1 | 3.0 | 9.0 | 0.04 | 0.30 | 0.18 | 92 | 1014.4 |
| 20260505120526 | 37 | 359 | 3.0 | 9.0 | 0.03 | 0.28 | 0.17 | 92 | 1014.3 |
| 20260505120038 | 37 | 1 | 3.0 | 9.0 | 0.03 | 0.28 | 0.17 | 92 | 1014.4 |
| 20260505115527 | 37 | 345 | 5.0 | 9.0 | 0.03 | 0.28 | 0.17 | 92 | 1014.4 |
| 20260505115027 | 37 | 359 | 3.0 | 8.0 | 0.03 | 0.28 | 0.17 | 92 | 1014.3 |
| 20260505114524 | 37 | 359 | 4.0 | 8.0 | 0.03 | 0.28 | 0.16 | 91 | 1014.2 |
| 20260505114023 | 38 | 8 | 3.0 | 9.0 | 0.03 | 0.28 | 0.16 | 91 | 1014.2 |
| 20260505113521 | 38 | 8 | 2.0 | 9.0 | 0.03 | 0.28 | 0.16 | 91 | 1014.2 |
| 20260505113025 | 38 | 360 | 3.0 | 8.0 | 0.02 | 0.27 | 0.15 | 92 | 1014.2 |
| 20260505112524 | 38 | 27 | 2.0 | 11.0 | 0.03 | 0.27 | 0.15 | 91 | 1014.0 |
| 20260505112023 | 39 | 1 | 5.0 | 11.0 | 0.02 | 0.26 | 0.14 | 91 | 1014.0 |
| 20260505111526 | 39 | 23 | 3.0 | 9.0 | 0.03 | 0.26 | 0.14 | 92 | 1014.0 |
| 20260505111025 | 39 | 23 | 3.0 | 10.0 | 0.04 | 0.26 | 0.14 | 92 | 1013.9 |
| 20260505110524 | 39 | 16 | 4.0 | 10.0 | 0.05 | 0.26 | 0.14 | 92 | 1013.6 |
| 20260505102007 | 40 | 359 | 4.0 | 11.0 | 0.05 | 0.24 | 0.12 | 92 | 1012.9 |
| 20260505101512 | 40 | 3 | 3.0 | 11.0 | 0.04 | 0.23 | 0.11 | 91 | 1012.8 |
| 20260505101016 | 40 | 49 | 3.0 | 8.0 | 0.03 | 0.22 | 0.10 | 91 | 1012.7 |
| 20260505100510 | 40 | 2 | 2.0 | 7.0 | 0.02 | 0.21 | 0.09 | 91 | 1012.6 |
| 20260505100010 | 41 | 4 | 4.0 | 7.0 | 0.02 | 0.20 | 0.08 | 91 | 1012.5 |
| 20260505095514 | 41 | 29 | 3.0 | 8.0 | 0.02 | 0.20 | 0.08 | 91 | 1012.4 |
| 20260505095008 | 41 | 19 | 4.0 | 8.0 | 0.02 | 0.19 | 0.07 | 91 | 1012.4 |
| 20260505094521 | 41 | 5 | 2.0 | 7.0 | 0.03 | 0.19 | 0.07 | 91 | 1012.5 |
| 20260505094013 | 41 | 4 | 2.0 | 7.0 | 0.04 | 0.19 | 0.07 | 91 | 1012.4 |
| 20260505093512 | 41 | 13 | 3.0 | 7.0 | 0.05 | 0.19 | 0.07 | 91 | 1012.3 |
| 20260505093012 | 41 | 58 | 2.0 | 9.0 | 0.06 | 0.19 | 0.07 | 91 | 1012.2 |
| 20260505092515 | 41 | 54 | 3.0 | 10.0 | 0.07 | 0.19 | 0.07 | 91 | 1012.2 |
| 20260505092012 | 42 | 45 | 2.0 | 10.0 | 0.07 | 0.19 | 0.07 | 91 | 1012.2 |
| 20260505091513 | 42 | 359 | 4.0 | 9.0 | 0.07 | 0.19 | 0.07 | 91 | 1012.1 |
| 20260505091012 | 42 | 62 | 4.0 | 8.0 | 0.07 | 0.19 | 0.07 | 91 | 1012.0 |
| 20260505090510 | 42 | 43 | 2.0 | 8.0 | 0.07 | 0.19 | 0.07 | 91 | 1012.0 |
| 20260505090019 | 43 | 55 | 3.0 | 7.0 | 0.06 | 0.18 | 0.06 | 90 | 1012.0 |
| 20260505085514 | 43 | 65 | 1.0 | 4.0 | 0.05 | 0.17 | 0.05 | 90 | 1012.1 |
| 20260505085011 | 43 | 66 | 1.0 | 4.0 | 0.05 | 0.17 | 0.05 | 90 | 1012.1 |
| 20260505084513 | 43 | 66 | 1.0 | 3.0 | 0.04 | 0.16 | 0.04 | 90 | 1012.1 |
| 20260505084012 | 44 | 66 | 1.0 | 9.0 | 0.03 | 0.15 | 0.03 | 90 | 1012.1 |
| 20260505083512 | 44 | 63 | 2.0 | 10.0 | 0.02 | 0.14 | 0.02 | 89 | 1012.0 |
| 20260505083018 | 45 | 49 | 4.0 | 10.0 | 0.01 | 0.13 | 0.01 | 88 | 1011.9 |
| 20260505082514 | 47 | 50 | 3.0 | 6.0 | 0.00 | 0.12 | 0.00 | 90 | 1011.9 |
| 20260505082012 | 47 | 66 | 2.0 | 5.0 | 0.00 | 0.12 | 0.00 | 90 | 1011.8 |
| 20260505081511 | 47 | 65 | 2.0 | 4.0 | 0.00 | 0.12 | 0.00 | 91 | 1011.8 |
| 20260505081016 | 47 | 65 | 1.0 | 5.0 | 0.00 | 0.12 | 0.00 | 91 | 1011.8 |
| 20260505080510 | 47 | 65 | 2.0 | 5.0 | 0.00 | 0.12 | 0.00 | 91 | 1011.7 |
| 20260505080008 | 47 | 60 | 2.0 | 6.0 | 0.00 | 0.12 | 0.00 | 91 | 1011.8 |
| 20260505075511 | 48 | 49 | 2.0 | 6.0 | 0.00 | 0.12 | 0.00 | 92 | 1011.9 |
| 20260505075012 | 48 | 288 | 1.0 | 4.0 | 0.00 | 0.12 | 0.00 | 92 | 1011.9 |
| 20260505074511 | 48 | 287 | 2.0 | 4.0 | 0.00 | 0.12 | 0.00 | 92 | 1012.0 |
| 20260505074011 | 48 | 250 | 0.0 | 3.0 | 0.00 | 0.12 | 0.00 | 92 | 1012.0 |
| 20260505073515 | 48 | 250 | 1.0 | 3.0 | 0.00 | 0.12 | 0.00 | 91 | 1012.0 |
| 20260505073011 | 48 | 248 | 1.0 | 3.0 | 0.00 | 0.12 | 0.00 | 91 | 1012.0 |
| 20260505072511 | 48 | 247 | 1.0 | 2.0 | 0.00 | 0.12 | 0.00 | 91 | 1012.0 |
| 20260505072010 | 48 | 247 | 0.0 | 1.0 | 0.00 | 0.12 | 0.00 | 91 | 1012.0 |
| 20260505071527 | 48 | 247 | 0.0 | 0.0 | 0.00 | 0.12 | 0.00 | 91 | 1012.1 |
| 20260505071011 | 48 | 247 | 0.0 | 0.0 | 0.00 | 0.12 | 0.00 | 91 | 1012.0 |
| 20260505070516 | 48 | 247 | 0.0 | 2.0 | 0.00 | 0.12 | 0.00 | 91 | 1011.8 |
| 20260505070018 | 48 | 247 | 0.0 | 2.0 | 0.00 | 0.12 | 0.00 | 91 | 1011.8 |
| 20260505065515 | 48 | 247 | 0.0 | 2.0 | 0.00 | 0.12 | 0.00 | 91 | 1011.7 |
| 20260505065015 | 48 | 247 | 0.0 | 1.0 | 0.00 | 0.12 | 0.00 | 91 | 1011.8 |
| 20260505064514 | 48 | 247 | 0.0 | 0.0 | 0.00 | 0.12 | 0.00 | 91 | 1011.7 |
| 20260505064013 | 48 | 247 | 0.0 | 0.0 | 0.00 | 0.12 | 0.00 | 91 | 1011.8 |
| 20260505063513 | 48 | 247 | 0.0 | 0.0 | 0.00 | 0.12 | 0.00 | 91 | 1011.9 |
| 20260505063018 | 48 | 247 | 0.0 | 3.0 | 0.00 | 0.12 | 0.00 | 91 | 1011.9 |
| 20260505062517 | 48 | 247 | 0.0 | 4.0 | 0.00 | 0.12 | 0.00 | 91 | 1011.9 |
| 20260505062017 | 48 | 248 | 1.0 | 4.0 | 0.00 | 0.12 | 0.00 | 91 | 1011.9 |
| 20260505061519 | 48 | 250 | 2.0 | 4.0 | 0.00 | 0.12 | 0.00 | 90 | 1012.0 |
| 20260505061020 | 48 | 253 | 1.0 | 2.0 | 0.00 | 0.12 | 0.00 | 90 | 1012.1 |
| 20260505060515 | 48 | 253 | 0.0 | 0.0 | 0.00 | 0.12 | 0.00 | 90 | 1012.0 |
| 20260505060035 | 48 | 253 | 0.0 | 0.0 | 0.00 | 0.12 | 0.00 | 90 | 1011.9 |
| 20260505055520 | 48 | 253 | 0.0 | 0.0 | 0.00 | 0.12 | 0.12 | 90 | 1012.0 |
| 20260505055016 | 48 | 253 | 0.0 | 0.0 | 0.00 | 0.12 | 0.12 | 90 | 1011.9 |
| 20260505054519 | 48 | 253 | 0.0 | 0.0 | 0.00 | 0.12 | 0.12 | 90 | 1011.8 |
| 20260505054018 | 48 | 253 | 0.0 | 0.0 | 0.00 | 0.12 | 0.12 | 90 | 1011.7 |
| 20260505053518 | 48 | 253 | 0.0 | 2.0 | 0.00 | 0.12 | 0.12 | 90 | 1011.8 |
| 20260505053017 | 48 | 253 | 0.0 | 2.0 | 0.00 | 0.12 | 0.12 | 90 | 1011.5 |
| 20260505052520 | 48 | 253 | 0.0 | 4.0 | 0.00 | 0.12 | 0.12 | 90 | 1011.5 |
| 20260505052017 | 48 | 253 | 0.0 | 4.0 | 0.00 | 0.12 | 0.12 | 90 | 1011.5 |
| 20260505051525 | 48 | 253 | 2.0 | 5.0 | 0.00 | 0.12 | 0.12 | 90 | 1011.5 |
| 20260505051019 | 48 | 253 | 2.0 | 5.0 | 0.01 | 0.12 | 0.12 | 90 | 1011.7 |
| 20260505050520 | 48 | 253 | 3.0 | 6.0 | 0.01 | 0.12 | 0.12 | 90 | 1011.7 |